Regional Weather Roundup
Issued by NWS Midland/Odessa, TX

Skip options and go directly to product.
Home | Oldest Version | Previous Version | Current Version | All | Graphics & Text | Save Text | Print | Product List | Glossary On

Skip product version selection by date and time.   
286
ASUS44 KMAF 192210
RWRMAF
MIDLAND AREA WEATHER ROUNDUP
NATIONAL WEATHER SERVICE MIDLAND TX
400 PM CST SUN FEB 19 2017

...IN SOUTHWEST TEXAS AND SOUTHEAST NEW MEXICO...

CITY           SKY/WX    TMP DP  RH WIND       PRES   REMARKS
ALPINE         CLOUDY    58  33  38 S12       29.93F
ANDREWS        CLOUDY    59  40  48 S14G24    29.88R
ARTESIA        CLOUDY    63  25  23 SW24G30   29.83S
BIG SPRING     CLOUDY    66  38  35 SW25G37   29.90R
CARLSBAD       CLOUDY    64  25  22 W17G25    29.83F
DRYDEN           N/A     63  48  58 VRB3      29.86F
FORT STOCKTON  CLOUDY    58  43  57 S20       29.87F
GUAD PASS      PTSUNNY   56  25  30 W36G44    29.89R
HOBBS          SUNNY     59  27  29 SW15G23   29.86S
MARFA          MOSUNNY   59  24  26 S14       29.90F
MIDLAND AIRPK  LGT RAIN  56  48  73 S10       29.89F
MIDLAND INTL   LGT RAIN  56  47  71 S15G24    29.87F
ODESSA         CLOUDY    57  45  64 S17       29.88F
PECOS          CLOUDY    66  30  25 W14       29.85R
PRESIDIO       FAIR      68  34  28 E8        29.86S
SEMINOLE       CLOUDY    62  31  32 SW14      29.88R
SNYDER         CLOUDY    72  38  29 SW10      29.84S
WINK           CLOUDY    66  31  27 W9        29.83F
$$
...OTHER STATIONS IN TEXAS...

CITY           SKY/WX    TMP DP  RH WIND       PRES   REMARKS
ABILENE        MOSUNNY   72  61  68 SE7       29.80F
AMARILLO       MOSUNNY   66  35  31 SW23G31   29.82R
AUSTIN         CLOUDY    79  66  64 SE20G26   29.79S
BROWNSVILLE    SUNNY     82  71  69 SE23G33   29.73S
CORPUS CHRISTI CLOUDY    79  72  79 SE30G36   29.74S
DALLAS FTW     CLOUDY    75  66  73 SE18G28   29.83F
DEL RIO        PTSUNNY   79  58  48 NW13      29.76S
EL PASO        PTSUNNY   58  25  28 SW13      29.91S
HOUSTON INT    PTSUNNY   78  67  68 SE18      29.87S
LUBBOCK        CLOUDY    66  35  31 SW22G29   29.83R
SAN ANGELO     CLOUDY    76  56  49 W8        29.80S
SAN ANTONIO    CLOUDY    79  66  64 SE18      29.80R
WACO           CLOUDY    78  65  63 SE21      29.81S
WICHITA FALLS  NOT AVBL
$$
...OTHER LOCATIONS IN NEW MEXICO...

CITY           SKY/WX    TMP DP  RH WIND       PRES   REMARKS
ALAMAGORDO     CLOUDY    55  27  33 W7        29.91F
ALBUQUERQUE    PTSUNNY   52  26  36 SW12      29.84R
CANNON AFB     CLOUDY    57  29  34 SW17G25   29.81R
CLOVIS         CLOUDY    57  34  41 SW14G20   29.81S
HOLLOMAN AFB   PTSUNNY   56  28  34 W13       29.93S
ROSWELL        PTSUNNY   63  25  23 NE5         N/A
RUIDOSO        CLOUDY    46  23  39 SW24      29.91R WCI  38
SANTA FE       MOSUNNY   47  33  58 VRB7      29.84R
TRUTH OR CONSE PTSUNNY   52  30  43 S14       29.88S
TUCUMCARI      CLOUDY    60  33  36 SW15      29.76F
$$